Location: Ferma
(41.9500°N, 44.5167°E)
Time: 19:07:03
(UTC+00:00)

Cosmos 2333 Rocket - Pass Details

Date: 24 October 2021
Orbit: 837 x 865 km, 70.8° (Epoch: 02 December)

Event Time Altitude Azimuth Distance (km) Brightness Sun altitude
Rises 14:55:37 0° 154° (SSE) 3,381 5.1 -9.7°
Reaches altitude 10° 14:59:04 10° 132° (SE) 2,457 4.2 -10.4°
Maximum altitude 15:02:12 15° 98° (E) 2,113 3.7 -10.9°
Enters shadow 15:03:17 15° 85° (E) 2,161 3.6 -11.1°
